User: anonymous
Location: Ostrava
(49.8330°N, 18.2830°E)
Time: 15:51:55
(UTC+02:00)
Language:

Iridium 7 - Orbit

View from above orbital plane
View from above orbital plane
View from above satellite
View from above satellite

Ground track
Ground track

The orbit data is extracted from the following two-line orbital elements,

1 24793U 97020B   14272.40941865  .00000546  00000-0  18796-3 0  9973
2 24793 086.4014 013.4783 0002272 110.2936 292.9661 14.34219078911040
Epoch (UTC): 29 September 2014 09:49:33
Eccentricity: 0.0002272
inclination: 86.4014°
perigee height: 776 km
apogee height: 779 km
right ascension of ascending node: 13.4783°
argument of perigee: 110.2936°
revolutions per day: 14.34219078
mean anomaly at epoch: 292.9661°
orbit number at epoch: 91104

The dashed part of the orbit path shows where the satellite is in the earth's shadow,  

DLR